Location: Observatory
(52.1446°N, 0.4624°W)
Time: 03:30:48
(UTC+01:00)

ISS - Pass Details

Date: 23 July 2021
Orbit: 419 x 421 km, 51.6° (Epoch: 03 August)

Event Time Altitude Azimuth Distance (km) Brightness Sun altitude
Rises 23:38:44 0° 282° (WNW) 2,374 0.6 -15.4°
Reaches altitude 10° 23:40:56 10° 274° (W) 1,507 -0.6 -15.5°
Maximum altitude 23:44:05 38° 206° (SSW) 663 -3.1 -15.7°
Enters shadow 23:44:32 36° 185° (S) 688 -3.2 -15.7°
